Weather History for Newburgh, NY

Change the Weather History Date:

Tuesday, April 2, 2013

  Actual Average Record
Temperature  
Mean Temperature 32 °F -  
Max Temperature 39 °F 50 °F 82 °F (2011)
Min Temperature 26 °F 32 °F 22 °F (1992)
Degree Days  
Heating Degree Days 32    
Moisture  
Dew Point 14 °F    
Average Humidity 48    
Maximum Humidity 74    
Minimum Humidity 31    
Precipitation  
Precipitation 0.00 in - - ()
Sea Level Pressure  
Sea Level Pressure 29.96 in    
Wind  
Wind Speed 15 mph (WNW)    
Max Wind Speed 26 mph    
Max Gust Speed 37 mph    
Visibility 16 miles    
Events      
Averages and records for this station are not official NWS values.
T = Trace of Precipitation, MM = Missing Value Source: NWS Daily Summary

Daily Weather History Graph

Daily Weather History Graph

Search for Another Location

Airport:

Trip Planner

Search our weather history database for the weather conditions in past years. The results will help you decide how hot, cold, wet, or windy it might be!

Date:

Astronomy

Apr. 02, 2013 Rise Set
Actual Time 6:37 AM EDT 7:23 PM EDT
Civil Twilight 6:09 AM EDT 7:51 PM EDT
Nautical Twilight 5:36 AM EDT 8:24 PM EDT
Astronomical Twilight 5:01 AM EDT 8:58 PM EDT
Moon 1:28 AM EDT (4/2) 11:22 AM EDT (4/2)
Length of Visible Light 13h 41m
Length of Day
12h 45m
Waning Gibbous, 56% of the Moon is Illuminated
Apr 2
Waning Gibbous
Apr 3
Last Quarter
Apr 10
New
Apr 18
First Quarter
Apr 25
Full

Hourly Weather History & Observations

Time (EDT) Temp. Windchill Dew Point Humidity Pressure Visibility Wind Dir Wind Speed Gust Speed Precip Events Conditions
1:45 AM 30.2 °F 20.8 °F 19.4 °F 64% 29.92 in 10.0 mi West 11.5 mph - N/A   Clear
2:45 AM 28.4 °F 18.5 °F 19.4 °F 69% 29.92 in 10.0 mi West 11.5 mph - N/A   Clear
3:45 AM 26.6 °F 16.2 °F 19.4 °F 74% 29.91 in 10.0 mi West 11.5 mph - N/A   Clear
4:45 AM 28.4 °F 18.5 °F 19.4 °F 69% 29.92 in 10.0 mi West 11.5 mph - N/A   Scattered Clouds
5:45 AM 28.4 °F 18.5 °F 19.4 °F 69% 29.94 in 10.0 mi WNW 11.5 mph - N/A   Clear
6:45 AM 28.4 °F 18.5 °F 19.4 °F 69% 29.95 in 20.0 mi WNW 11.5 mph - N/A   Partly Cloudy
7:45 AM 28.4 °F 17.5 °F 19.4 °F 69% 29.97 in 20.0 mi West 13.8 mph - N/A   Partly Cloudy
8:45 AM 30.2 °F 18.1 °F 15.8 °F 55% 29.98 in 20.0 mi WNW 18.4 mph 26.5 mph N/A   Partly Cloudy
9:45 AM 32.0 °F 18.4 °F 8.6 °F 38% 29.98 in 20.0 mi NW 26.5 mph 36.8 mph N/A   Partly Cloudy
10:45 AM 35.6 °F 24.0 °F 8.6 °F 33% 29.98 in 20.0 mi WNW 23.0 mph 27.6 mph N/A   Scattered Clouds
12:45 PM 37.4 °F 26.4 °F 10.4 °F 33% 29.98 in 20.0 mi WNW 23.0 mph 32.2 mph N/A   Scattered Clouds
1:55 PM 37.4 °F 26.9 °F 12.2 °F 36% 29.96 in 20.0 mi WNW 20.7 mph 32.2 mph N/A   Scattered Clouds
2:50 PM 39.2 °F 28.7 °F 12.2 °F 33% 29.95 in 20.0 mi WNW 23.0 mph 34.5 mph N/A   Scattered Clouds
3:50 PM 37.4 °F 25.9 °F 10.4 °F 33% 29.94 in 20.0 mi WNW 25.3 mph 36.8 mph N/A   Scattered Clouds
4:45 PM 37.4 °F 26.4 °F 10.4 °F 33% 29.94 in 20.0 mi WNW 23.0 mph 34.5 mph N/A   Scattered Clouds
5:45 PM 39.2 °F 29.3 °F 10.4 °F 31% 29.95 in 20.0 mi WNW 20.7 mph 32.2 mph N/A   Scattered Clouds
6:45 PM 37.4 °F 25.9 °F 10.4 °F 33% 29.97 in 20.0 mi WNW 25.3 mph 34.5 mph N/A   Scattered Clouds
7:45 PM 35.6 °F 26.6 °F 12.2 °F 38% 29.99 in 10.0 mi WNW 13.8 mph 25.3 mph N/A   Scattered Clouds
8:45 PM 33.8 °F 25.3 °F 12.2 °F 41% 30.02 in 10.0 mi WNW 11.5 mph - N/A   Partly Cloudy
10:45 PM 32.0 °F - 12.2 °F 44% - - North - - N/A   Clear
11:45 PM 32.0 °F 23.0 °F 10.4 °F 41% - - West 11.5 mph 25.3 mph N/A   Clear